Detroit, MI

9:28 AM EST on February 13, 2016 (GMT -0500)
Detroit Metro Wayne County

Weather History for KDTW - March, 2013

Change the Weather History Date:

Friday, March 15, 2013

  Actual Average Record
Temperature  
Mean Temperature 36 °F 37 °F  
Max Temperature 42 °F 45 °F 77 °F (1977)
Min Temperature 30 °F 28 °F 5 °F (1993)
Degree Days  
Heating Degree Days 29 28  
Month to date heating degree days 462 463  
Since 1 July heating degree days 4747 5016  
Cooling Degree Days 0 0  
Month to date cooling degree days 0 0  
Year to date cooling degree days 0 0  
Moisture  
Dew Point 29 °F    
Average Humidity 76    
Maximum Humidity 92    
Minimum Humidity 59    
Precipitation  
Precipitation 0.06 in 0.07 in 0.93 in (1912)
Month to date precipitation 0.39 1.05  
Year to date precipitation 6.67 5.03  
Snow  
Snow T in 0.30 in 8.60 in (1912)
Month to date snowfall 0.7 4.2  
Since 1 July snowfall 45.2 38.1  
Snow Depth 0.00 in    
Sea Level Pressure  
Sea Level Pressure 29.93 in    
Wind  
Wind Speed 8 mph (West)    
Max Wind Speed 13 mph    
Max Gust Speed -    
Visibility 8 miles    
Events Rain , Snow    
T = Trace of Precipitation, MM = Missing Value Source: NWS Daily Summary

Daily Weather History Graph

Daily Weather History Graph

Search for Another Location

Airport or City:

Trip Planner

Search our weather history database for the weather conditions in past years. The results will help you decide how hot, cold, wet, or windy it might be!

Date:

Astronomy

Mar. 15, 2013 Rise Set
Actual Time 7:44 AM EDT 7:40 PM EDT
Civil Twilight 7:17 AM EDT 8:08 PM EDT
Nautical Twilight 6:44 AM EDT 8:40 PM EDT
Astronomical Twilight 6:11 AM EDT 9:13 PM EDT
Moon 9:29 AM EDT (3/15) 11:58 PM EDT (3/15)
Length of Visible Light 12h 51m
Length of Day
11h 55m
Waxing Crescent, 15% of the Moon is Illuminated
Mar 15
Waxing Crescent
Mar 19
First Quarter
Mar 27
Full
Apr 3
Last Quarter
Apr 10
New

Hourly Weather History & Observations

Time (EDT) Temp. Windchill Dew Point Humidity Pressure Visibility Wind Dir Wind Speed Gust Speed Precip Events Conditions
12:53 AM 32.0 °F 25.6 °F 19.9 °F 61% 30.09 in 10.0 mi SW 6.9 mph - N/A   Scattered Clouds
1:53 AM 33.1 °F 26.9 °F 21.0 °F 61% 30.08 in 10.0 mi SW 6.9 mph - N/A   Overcast
2:53 AM 33.1 °F 26.9 °F 21.0 °F 61% 30.06 in 10.0 mi SSW 6.9 mph - N/A   Overcast
3:53 AM 33.1 °F 26.1 °F 21.9 °F 64% 30.03 in 10.0 mi SSW 8.1 mph - N/A   Overcast
4:53 AM 33.1 °F 26.1 °F 23.0 °F 66% 30.00 in 10.0 mi SSW 8.1 mph - N/A   Overcast
5:53 AM 32.0 °F 24.8 °F 24.1 °F 73% 29.98 in 10.0 mi SSW 8.1 mph - N/A   Overcast
6:01 AM 32.0 °F 25.6 °F 24.8 °F 75% 29.97 in 10.0 mi SW 6.9 mph - N/A   Overcast
6:53 AM 34.0 °F 26.6 °F 27.0 °F 75% 29.97 in 10.0 mi SW 9.2 mph - N/A   Overcast
7:53 AM 35.1 °F 26.9 °F 28.0 °F 76% 29.95 in 10.0 mi SW 11.5 mph - N/A   Overcast
8:53 AM 35.1 °F 26.4 °F 28.0 °F 76% 29.96 in 9.0 mi WSW 12.7 mph - N/A   Overcast
9:53 AM 36.0 °F 28.5 °F 28.0 °F 73% 29.94 in 10.0 mi West 10.4 mph - N/A   Overcast
10:53 AM 37.0 °F 30.4 °F 28.9 °F 73% 29.93 in 9.0 mi West 9.2 mph - N/A   Overcast
11:53 AM 37.9 °F 30.5 °F 28.9 °F 70% 29.93 in 10.0 mi WSW 11.5 mph - N/A   Overcast
12:53 PM 39.0 °F 31.4 °F 28.9 °F 67% 29.93 in 10.0 mi West 12.7 mph - N/A   Overcast
1:53 PM 39.9 °F 33.9 °F 28.9 °F 65% 29.92 in 9.0 mi West 9.2 mph - N/A   Overcast
2:53 PM 39.9 °F 35.8 °F 28.9 °F 65% 29.89 in 10.0 mi West 5.8 mph - N/A   Overcast
3:53 PM 42.1 °F 37.7 °F 30.0 °F 62% 29.88 in 10.0 mi West 6.9 mph - N/A   Overcast
4:53 PM 39.9 °F 33.9 °F 32.0 °F 73% 29.88 in 9.0 mi West 9.2 mph - N/A   Overcast
5:53 PM 39.0 °F 32.8 °F 33.1 °F 79% 29.89 in 8.0 mi NNW 9.2 mph - 0.00 in Rain Light Rain
6:24 PM 37.4 °F 32.1 °F 33.8 °F 87% 29.88 in 7.0 mi NW 6.9 mph - N/A Rain Light Rain
6:53 PM 37.9 °F 33.5 °F 33.1 °F 83% 29.90 in 5.0 mi WNW 5.8 mph - 0.01 in Rain Light Rain
7:27 PM 37.4 °F 32.8 °F 33.8 °F 87% 29.88 in 3.0 mi North 5.8 mph - 0.01 in Rain Light Rain
7:53 PM 37.0 °F 33.3 °F 33.1 °F 86% 29.90 in 3.0 mi North 4.6 mph - 0.01 in Rain Light Rain
8:13 PM 37.4 °F 33.8 °F 33.8 °F 87% 29.88 in 3.0 mi North 4.6 mph - 0.00 in Rain Light Rain
8:32 PM 37.4 °F 32.8 °F 33.8 °F 87% 29.88 in 3.0 mi North 5.8 mph - 0.01 in Rain Light Rain
8:53 PM 37.0 °F 34.5 °F 33.1 °F 86% 29.90 in 6.0 mi North 3.5 mph - 0.01 in Rain Light Rain
9:42 PM 35.6 °F 30.7 °F 33.8 °F 93% 29.88 in 5.0 mi NNW 5.8 mph - 0.01 in Rain , Snow Light Rain
9:53 PM 36.0 °F 31.1 °F 33.1 °F 89% 29.90 in 5.0 mi North 5.8 mph - 0.01 in Rain , Snow Light Rain
10:53 PM 36.0 °F 33.3 °F 33.1 °F 89% 29.89 in 4.0 mi NNE 3.5 mph - 0.01 in Rain , Snow Light Rain
11:00 PM 35.6 °F 32.8 °F 33.8 °F 93% 29.87 in 4.0 mi NNE 3.5 mph - 0.00 in Rain , Snow Light Rain
11:53 PM 36.0 °F - 33.1 °F 89% 29.87 in 3.0 mi Calm Calm - 0.00 in Rain , Snow Light Rain
11:56 PM 35.6 °F 32.8 °F 33.8 °F 93% 29.85 in 3.0 mi ENE 3.5 mph - 0.00 in Rain , Snow Light Rain